STARLINK-32388 (62144 NORAD) Tracking and Keplerian Element Data

This shows tracking and keplerian element data for the satellite.

Feedback or suggestion? Click here.




ElementValue
Catalog62144
NameSTARLINK-32388
Epoch Orbit1140
Epoch Day34.91559643
Epoch Year2025
RAAN257.8738
Inclination43.0005
Eccentricity0.0001456
Argument of Perigee266.3463
Mean Anonmoly93.7224
Mean Motion15.32092183
Decay Rate-6.74E-06
L11 62144U 24224F 25034.91559643 -.00000674 00000+0 -12608-4 0 9996
L22 62144 43.0005 257.8738 0001456 266.3463 93.7224 15.32092183 11404



Live tracking and technical data element details for STARLINK-32388 (NORAD 62144). STARLINK-32388 can be tracked NOW for your location showing map with azimuth and elevation plus other details from your city location.







IsCatalogInMostPopularTable: catalog: 62144, numindb: 15
Update: records affected: 1



GetName: 62144 STARLINK-32388

Hit Count: updated at: Sun, 18 May 2025 23:27:48 GMT